Tracking 31027 objects as of 19-Jul-2025
HD Live streaming from Space Station
objects crossing your sky now

GEESAT 3-09

Track GEESAT 3-09 now!
10-day predictions


NORAD ID: 61019
Int'l Code: 2024-159J
Perigee: 592.9 km
Apogee: 596.1 km
Inclination: 50.0 °
Period: 96.4 minutes
Semi major axis: 6965 km
RCS: Unknown
Launch date: September 5, 2024
Source: People's Republic of China (PRC)
Launch site: Taiyaun Space Center, China (TSC)
Your satellite tracking list
STARLINK-2062
Track 1 satellite(s)




NASA's NSSDC Master Catalog

Two Line Element Set (TLE):
1 61019U 24159J   25199.84653359  .00002841  00000-0  29067-3 0  9999
2 61019  49.9955 193.1632 0002293  14.5042 345.5966 14.93395458 47209
Source of the keplerian elements: AFSPC